Location: *
(33.8649°S, 62.1526°E)
Time: 13:06:44
(UTC+00:00)

Cosmos 1733 - Pass Details

Date: 17 January 2021
Orbit: 505 x 520 km, 82.5° (Epoch: 02 March)

Event Time Altitude Azimuth Distance (km) Brightness Sun altitude
Rises 23:24:57 0° 184° (S) 2,684 7.4 -17.2°
Reaches altitude 10° 23:27:08 10° 180° (S) 1,786 6.5 -16.9°
Maximum altitude 23:31:02 66° 98° (E) 579 3.6 -16.2°
Drops below altitude 10° 23:34:52 10° 14° (NNE) 1,754 5.6 -15.6°
Enters shadow 23:35:40 - 13° (NNE) 2,082 6.0 -15.5°
